Year,Month,Day,Hour,Minute,Value (Times are PST for temperature in C)
2011,04,18,00,02,3.90
2011,04,18,00,03,3.90
2011,04,18,00,04,3.90
2011,04,18,00,05,3.90
2011,04,18,00,06,3.90
2011,04,18,00,07,3.80
2011,04,18,00,08,3.80
2011,04,18,00,09,3.80
2011,04,18,00,11,3.80
2011,04,18,00,12,3.80
2011,04,18,00,13,3.80
2011,04,18,00,14,3.80
2011,04,18,00,15,3.80
2011,04,18,00,16,3.80
2011,04,18,00,17,3.80
2011,04,18,00,18,3.80
2011,04,18,00,19,3.80
2011,04,18,00,20,3.80
2011,04,18,00,21,3.80
2011,04,18,00,22,3.80
2011,04,18,00,23,3.80
2011,04,18,00,25,3.80
2011,04,18,00,26,3.90
2011,04,18,00,27,3.90
2011,04,18,00,28,3.90
2011,04,18,00,29,3.90
2011,04,18,00,30,3.90
2011,04,18,00,31,4.00
2011,04,18,00,32,4.00
2011,04,18,00,33,4.00
2011,04,18,00,34,4.00
2011,04,18,00,36,4.00
2011,04,18,00,37,4.00
2011,04,18,00,38,4.00
2011,04,18,00,39,4.00
2011,04,18,00,40,4.00
2011,04,18,00,41,4.00
2011,04,18,00,42,4.00
2011,04,18,00,43,3.90
2011,04,18,00,44,3.90
2011,04,18,00,45,3.90
2011,04,18,00,46,3.90
2011,04,18,00,47,3.90
2011,04,18,00,48,3.90
2011,04,18,00,49,3.90
2011,04,18,00,50,3.90
2011,04,18,00,51,3.80
2011,04,18,00,52,3.80
2011,04,18,00,53,3.80
2011,04,18,00,54,3.80
2011,04,18,00,55,3.80
2011,04,18,00,57,3.80
2011,04,18,00,58,3.80
2011,04,18,00,59,3.80
2011,04,18,01,00,3.80
2011,04,18,01,01,3.80
2011,04,18,01,02,3.80
2011,04,18,01,03,3.80
2011,04,18,01,04,3.80
2011,04,18,01,05,3.70
2011,04,18,01,06,3.70
2011,04,18,01,07,3.70
2011,04,18,01,08,3.70
2011,04,18,01,09,3.70
2011,04,18,01,10,3.60
2011,04,18,01,12,3.60
2011,04,18,01,13,3.60
2011,04,18,01,14,3.60
2011,04,18,01,15,3.50
2011,04,18,01,17,3.50
2011,04,18,01,18,3.50
2011,04,18,01,19,3.40
2011,04,18,01,20,3.40
2011,04,18,01,21,3.40
2011,04,18,01,22,3.40
2011,04,18,01,23,3.40
2011,04,18,01,24,3.40
2011,04,18,01,25,3.40
2011,04,18,01,26,3.40
2011,04,18,01,27,3.30
2011,04,18,01,28,3.30
2011,04,18,01,29,3.30
2011,04,18,01,30,3.30
2011,04,18,01,31,3.30
2011,04,18,01,33,3.30
2011,04,18,01,34,3.30
2011,04,18,01,35,3.20
2011,04,18,01,36,3.20
2011,04,18,01,37,3.20
2011,04,18,01,39,3.20
2011,04,18,01,40,3.20
2011,04,18,01,41,3.20
2011,04,18,01,42,3.20
2011,04,18,01,44,3.20
2011,04,18,01,45,3.20
2011,04,18,01,46,3.20
2011,04,18,01,48,3.20
2011,04,18,01,49,3.20
2011,04,18,01,50,3.20
2011,04,18,01,51,3.20
2011,04,18,01,52,3.20
2011,04,18,01,54,3.20
2011,04,18,01,55,3.20
2011,04,18,01,56,3.20
2011,04,18,01,57,3.20
2011,04,18,01,58,3.20
2011,04,18,01,59,3.20
2011,04,18,02,01,3.20
2011,04,18,02,02,3.20
2011,04,18,02,03,3.20
2011,04,18,02,04,3.20
2011,04,18,02,06,3.20
2011,04,18,02,07,3.20
2011,04,18,02,08,3.20
2011,04,18,02,09,3.10
2011,04,18,02,11,3.10
2011,04,18,02,12,3.20
2011,04,18,02,13,3.20
2011,04,18,02,14,3.20
2011,04,18,02,16,3.20
2011,04,18,02,17,3.20
2011,04,18,02,18,3.10
2011,04,18,02,19,3.10
2011,04,18,02,21,3.10
2011,04,18,02,22,3.10
2011,04,18,02,23,3.10
2011,04,18,02,24,3.00
2011,04,18,02,26,3.00
2011,04,18,02,27,3.00
2011,04,18,02,28,2.90
2011,04,18,02,29,2.90
2011,04,18,02,30,2.90
2011,04,18,02,32,2.90
2011,04,18,02,33,2.90
2011,04,18,02,34,2.90
2011,04,18,02,35,2.90
2011,04,18,02,37,2.80
2011,04,18,02,38,2.80
2011,04,18,02,39,2.80
2011,04,18,02,41,2.80
2011,04,18,02,42,2.80
2011,04,18,02,43,2.80
2011,04,18,02,44,2.80
2011,04,18,02,46,2.80
2011,04,18,02,47,2.70
2011,04,18,02,48,2.70
2011,04,18,02,49,2.70
2011,04,18,02,51,2.70
2011,04,18,02,52,2.70
2011,04,18,02,53,2.70
2011,04,18,02,54,2.70
2011,04,18,02,55,2.70
2011,04,18,02,56,2.70
2011,04,18,02,57,2.60
2011,04,18,02,58,2.60
2011,04,18,02,59,2.60
2011,04,18,03,00,2.60
2011,04,18,03,01,2.60
2011,04,18,03,02,2.60
2011,04,18,03,03,2.50
2011,04,18,03,04,2.40
2011,04,18,03,05,2.40
2011,04,18,03,06,2.40
2011,04,18,03,07,2.40
2011,04,18,03,08,2.40
2011,04,18,03,09,2.30
2011,04,18,03,10,2.30
2011,04,18,03,11,2.30
2011,04,18,03,12,2.30
2011,04,18,03,13,2.20
2011,04,18,03,14,2.20
2011,04,18,03,15,2.20
2011,04,18,03,16,2.20
2011,04,18,03,17,2.10
2011,04,18,03,18,2.10
2011,04,18,03,19,2.10
2011,04,18,03,20,2.10
2011,04,18,03,21,2.10
2011,04,18,03,22,2.10
2011,04,18,03,24,2.10
2011,04,18,03,25,2.10
2011,04,18,03,26,2.10
2011,04,18,03,27,2.10
2011,04,18,03,29,2.10
2011,04,18,03,30,2.10
2011,04,18,03,31,2.10
2011,04,18,03,32,2.10
2011,04,18,03,34,2.20
2011,04,18,03,35,2.20
2011,04,18,03,36,2.20
2011,04,18,03,37,2.20
2011,04,18,03,38,2.20
2011,04,18,03,39,2.20
2011,04,18,03,40,2.30
2011,04,18,03,41,2.30
2011,04,18,03,43,2.30
2011,04,18,03,44,2.40
2011,04,18,03,45,2.40
2011,04,18,03,46,2.50
2011,04,18,03,47,2.50
2011,04,18,03,48,2.50
2011,04,18,03,49,2.60
2011,04,18,03,50,2.60
2011,04,18,03,51,2.60
2011,04,18,03,52,2.60
2011,04,18,03,53,2.60
2011,04,18,03,54,2.60
2011,04,18,03,55,2.60
2011,04,18,03,57,2.60
2011,04,18,03,58,2.60
2011,04,18,03,59,2.70
2011,04,18,04,00,2.70
2011,04,18,04,01,2.70
2011,04,18,04,02,2.70
2011,04,18,04,03,2.70
2011,04,18,04,04,2.70
2011,04,18,04,05,2.70
2011,04,18,04,06,2.70
2011,04,18,04,08,2.70
2011,04,18,04,09,2.70
2011,04,18,04,10,2.80
2011,04,18,04,11,2.80
2011,04,18,04,12,2.80
2011,04,18,04,13,2.80
2011,04,18,04,14,2.80
2011,04,18,04,15,2.80
2011,04,18,04,17,2.80
2011,04,18,04,18,2.80
2011,04,18,04,19,2.80
2011,04,18,04,20,2.80
2011,04,18,04,22,2.80
2011,04,18,04,23,2.80
2011,04,18,04,24,2.80
2011,04,18,04,25,2.80
2011,04,18,04,27,2.80
2011,04,18,04,28,2.80
2011,04,18,04,29,2.80
2011,04,18,04,30,2.80
2011,04,18,04,32,2.80
2011,04,18,04,33,2.80
2011,04,18,04,34,2.80
2011,04,18,04,35,2.80
2011,04,18,04,37,2.80
2011,04,18,04,38,2.80
2011,04,18,04,39,2.80
2011,04,18,04,40,2.80
2011,04,18,04,41,2.80
2011,04,18,04,42,2.80
2011,04,18,04,43,2.80
2011,04,18,04,44,2.90
2011,04,18,04,45,2.90
2011,04,18,04,47,2.90
2011,04,18,04,48,2.90
2011,04,18,04,49,2.90
2011,04,18,04,50,2.90
2011,04,18,04,52,2.90
2011,04,18,04,53,2.90
2011,04,18,04,54,2.90
2011,04,18,04,56,2.90
2011,04,18,04,57,2.90
2011,04,18,04,58,2.90
2011,04,18,04,59,2.90
2011,04,18,05,00,2.90
2011,04,18,05,01,2.90
2011,04,18,05,02,2.90
2011,04,18,05,03,2.90
2011,04,18,05,04,2.90
2011,04,18,05,05,2.90
2011,04,18,05,06,2.90
2011,04,18,05,07,2.90
2011,04,18,05,08,2.90
2011,04,18,05,09,2.90
2011,04,18,05,11,2.90
2011,04,18,05,12,2.90
2011,04,18,05,13,2.90
2011,04,18,05,14,3.00
2011,04,18,05,16,3.00
2011,04,18,05,17,3.00
2011,04,18,05,18,2.90
2011,04,18,05,20,2.90
2011,04,18,05,21,2.90
2011,04,18,05,22,2.90
2011,04,18,05,23,2.90
2011,04,18,05,24,2.90
2011,04,18,05,25,2.90
2011,04,18,05,26,2.80
2011,04,18,05,27,2.80
2011,04,18,05,28,2.80
2011,04,18,05,29,2.80
2011,04,18,05,30,2.80
2011,04,18,05,31,2.80
2011,04,18,05,32,2.80
2011,04,18,05,34,2.80
2011,04,18,05,35,2.70
2011,04,18,05,36,2.70
2011,04,18,05,38,2.70
2011,04,18,05,39,2.70
2011,04,18,05,40,2.70
2011,04,18,05,41,2.70
2011,04,18,05,43,2.70
2011,04,18,05,44,2.70
2011,04,18,05,45,2.70
2011,04,18,05,47,2.70
2011,04,18,05,48,2.70
2011,04,18,05,49,2.70
2011,04,18,05,50,2.70
2011,04,18,05,51,2.70
2011,04,18,05,53,2.70
2011,04,18,05,54,2.70
2011,04,18,05,55,2.70
2011,04,18,05,56,2.70
2011,04,18,05,57,2.70
2011,04,18,05,58,2.70
2011,04,18,05,59,2.60
2011,04,18,06,00,2.70
2011,04,18,06,01,2.70
2011,04,18,06,02,2.70
2011,04,18,06,03,2.70
2011,04,18,06,04,2.70
2011,04,18,06,06,2.80
2011,04,18,06,07,2.80
2011,04,18,06,08,2.80
2011,04,18,06,09,2.90
2011,04,18,06,10,2.90
2011,04,18,06,12,2.90
2011,04,18,06,13,3.00
2011,04,18,06,14,3.00
2011,04,18,06,15,3.00
2011,04,18,06,17,3.10
2011,04,18,06,18,3.10
2011,04,18,06,19,3.10
2011,04,18,06,20,3.10
2011,04,18,06,21,3.10
2011,04,18,06,23,3.10
2011,04,18,06,24,3.10
2011,04,18,06,25,3.10
2011,04,18,06,26,3.10
2011,04,18,06,27,3.10
2011,04,18,06,28,3.10
2011,04,18,06,29,3.20
2011,04,18,06,30,3.20
2011,04,18,06,31,3.10
2011,04,18,06,32,3.10
2011,04,18,06,33,3.10
2011,04,18,06,34,3.10
2011,04,18,06,36,3.10
2011,04,18,06,37,3.10
2011,04,18,06,38,3.10
2011,04,18,06,39,3.10
2011,04,18,06,40,3.10
2011,04,18,06,41,3.10
2011,04,18,06,42,3.10
2011,04,18,06,43,3.10
2011,04,18,06,44,3.10
2011,04,18,06,45,3.20
2011,04,18,06,46,3.20
2011,04,18,06,47,3.20
2011,04,18,06,48,3.20
2011,04,18,06,49,3.20
2011,04,18,06,50,3.20
2011,04,18,06,51,3.20
2011,04,18,06,52,3.20
2011,04,18,06,53,3.20
2011,04,18,06,54,3.20
2011,04,18,06,55,3.20
2011,04,18,06,56,3.20
2011,04,18,06,57,3.20
2011,04,18,06,59,3.20
2011,04,18,07,00,3.30
2011,04,18,07,01,3.30
2011,04,18,07,02,3.30
2011,04,18,07,03,3.30
2011,04,18,07,04,3.30
2011,04,18,07,05,3.30
2011,04,18,07,06,3.30
2011,04,18,07,07,3.30
2011,04,18,07,09,3.30
2011,04,18,07,10,3.30
2011,04,18,07,11,3.30
2011,04,18,07,12,3.30
2011,04,18,07,13,3.30
2011,04,18,07,14,3.30
2011,04,18,07,15,3.40
2011,04,18,07,16,3.40
2011,04,18,07,17,3.40
2011,04,18,07,18,3.40
2011,04,18,07,19,3.40
2011,04,18,07,20,3.40
2011,04,18,07,21,3.40
2011,04,18,07,22,3.40
2011,04,18,07,23,3.50
2011,04,18,07,24,3.50
2011,04,18,07,25,3.50
2011,04,18,07,26,3.50
2011,04,18,07,27,3.50
2011,04,18,07,28,3.50
2011,04,18,07,29,3.50
2011,04,18,07,31,3.50
2011,04,18,07,32,3.60
2011,04,18,07,33,3.60
2011,04,18,07,34,3.60
2011,04,18,07,36,3.60
2011,04,18,07,37,3.60
2011,04,18,07,38,3.60
2011,04,18,07,40,3.70
2011,04,18,07,41,3.70
2011,04,18,07,42,3.70
2011,04,18,07,43,3.70
2011,04,18,07,45,3.70
2011,04,18,07,46,3.70
2011,04,18,07,47,3.70
2011,04,18,07,48,3.70
2011,04,18,07,50,3.70
2011,04,18,07,51,3.70
2011,04,18,07,52,3.80
2011,04,18,07,53,3.80
2011,04,18,07,55,3.80
2011,04,18,07,56,3.80
2011,04,18,07,57,3.80
2011,04,18,07,58,3.90
2011,04,18,08,00,3.90
2011,04,18,08,01,4.00
2011,04,18,08,02,4.10
2011,04,18,08,03,4.20
2011,04,18,08,05,4.20
2011,04,18,08,06,4.30
2011,04,18,08,07,4.40
2011,04,18,08,09,4.40
2011,04,18,08,10,4.60
2011,04,18,08,11,4.60
2011,04,18,08,12,4.70
2011,04,18,08,14,4.70
2011,04,18,08,15,4.80
2011,04,18,08,16,4.90
2011,04,18,08,17,5.00
2011,04,18,08,18,5.10
2011,04,18,08,19,5.20
2011,04,18,08,20,5.30
2011,04,18,08,21,5.40
2011,04,18,08,22,5.60
2011,04,18,08,23,5.70
2011,04,18,08,24,5.70
2011,04,18,08,25,5.80
2011,04,18,08,26,5.90
2011,04,18,08,27,6.00
2011,04,18,08,29,6.10
2011,04,18,08,30,6.20
2011,04,18,08,31,6.20
2011,04,18,08,32,6.30
2011,04,18,08,37,6.40
2011,04,18,08,39,6.40
2011,04,18,08,40,6.40
2011,04,18,08,41,6.40
2011,04,18,08,42,6.40
2011,04,18,08,43,6.40
2011,04,18,08,44,6.40
2011,04,18,08,45,6.40
2011,04,18,08,46,6.50
2011,04,18,08,47,6.50
2011,04,18,08,48,6.50
2011,04,18,08,49,6.60
2011,04,18,08,50,6.60
2011,04,18,08,51,6.60
2011,04,18,08,52,6.60
2011,04,18,08,53,6.60
2011,04,18,08,54,6.70
2011,04,18,08,55,6.70
2011,04,18,08,56,6.70
2011,04,18,08,57,6.80
2011,04,18,08,58,6.80
2011,04,18,08,59,6.90
2011,04,18,09,00,6.90
2011,04,18,09,01,6.80
2011,04,18,09,02,6.80
2011,04,18,09,03,6.80
2011,04,18,09,04,6.80
2011,04,18,09,05,6.80
2011,04,18,09,06,6.90
2011,04,18,09,07,6.90
2011,04,18,09,09,6.90
2011,04,18,09,10,6.90
2011,04,18,09,11,6.90
2011,04,18,09,12,6.90
2011,04,18,09,13,7.00
2011,04,18,09,14,7.00
2011,04,18,09,15,7.10
2011,04,18,09,16,7.10
2011,04,18,09,17,7.20
2011,04,18,09,19,7.20
2011,04,18,09,20,7.20
2011,04,18,09,21,7.30
2011,04,18,09,22,7.30
2011,04,18,09,23,7.30
2011,04,18,09,24,7.30
2011,04,18,09,25,7.30
2011,04,18,09,26,7.30
2011,04,18,09,27,7.40
2011,04,18,09,28,7.40
2011,04,18,09,29,7.40
2011,04,18,09,30,7.50
2011,04,18,09,31,7.60
2011,04,18,09,33,7.60
2011,04,18,09,34,7.60
2011,04,18,09,35,7.70
2011,04,18,09,36,7.70
2011,04,18,09,37,7.70
2011,04,18,09,39,7.70
2011,04,18,09,40,7.80
2011,04,18,09,41,7.80
2011,04,18,09,43,7.90
2011,04,18,09,44,7.90
2011,04,18,09,45,8.00
2011,04,18,09,46,8.00
2011,04,18,09,47,8.10
2011,04,18,09,48,8.10
2011,04,18,09,49,8.10
2011,04,18,09,50,8.20
2011,04,18,09,51,8.20
2011,04,18,09,52,8.30
2011,04,18,09,53,8.30
2011,04,18,09,54,8.40
2011,04,18,09,55,8.30
2011,04,18,09,57,8.20
2011,04,18,09,58,8.20
2011,04,18,09,59,8.20
2011,04,18,10,00,8.20
2011,04,18,10,01,8.20
2011,04,18,10,03,8.20
2011,04,18,10,04,8.20
2011,04,18,10,05,8.20
2011,04,18,10,07,8.20
2011,04,18,10,08,8.30
2011,04,18,10,09,8.20
2011,04,18,10,10,8.20
2011,04,18,10,12,8.20
2011,04,18,10,13,8.20
2011,04,18,10,14,8.30
2011,04,18,10,16,8.30
2011,04,18,10,17,8.30
2011,04,18,10,18,8.20
2011,04,18,10,19,8.20
2011,04,18,10,21,8.30
2011,04,18,10,22,8.20
2011,04,18,10,23,8.20
2011,04,18,10,24,8.20
2011,04,18,10,26,8.20
2011,04,18,10,27,8.20
2011,04,18,10,28,8.20
2011,04,18,10,29,8.30
2011,04,18,10,30,8.30
2011,04,18,10,31,8.40
2011,04,18,10,32,8.50
2011,04,18,10,33,8.60
2011,04,18,10,35,8.70
2011,04,18,10,36,8.80
2011,04,18,10,37,8.90
2011,04,18,10,38,9.20
2011,04,18,10,40,9.30
2011,04,18,10,41,9.40
2011,04,18,10,42,9.40
2011,04,18,10,43,9.40
2011,04,18,10,45,9.50
2011,04,18,10,46,9.60
2011,04,18,10,47,9.60
2011,04,18,10,48,9.70
2011,04,18,10,49,9.70
2011,04,18,10,51,9.70
2011,04,18,10,52,9.80
2011,04,18,10,53,9.80
2011,04,18,10,54,9.70
2011,04,18,10,55,9.60
2011,04,18,10,56,9.60
2011,04,18,10,57,9.60
2011,04,18,10,58,9.60
2011,04,18,10,59,9.60
2011,04,18,11,00,9.50
2011,04,18,11,01,9.50
2011,04,18,11,02,9.40
2011,04,18,11,03,9.40
2011,04,18,11,04,9.30
2011,04,18,11,05,9.40
2011,04,18,11,06,9.40
2011,04,18,11,07,9.40
2011,04,18,11,08,9.40
2011,04,18,11,09,9.40
2011,04,18,11,11,9.40
2011,04,18,11,12,9.40
2011,04,18,11,13,9.40
2011,04,18,11,14,9.40
2011,04,18,11,15,9.30
2011,04,18,11,16,9.30
2011,04,18,11,17,9.20
2011,04,18,11,18,9.10
2011,04,18,11,19,9.10
2011,04,18,11,20,8.90
2011,04,18,11,21,8.90
2011,04,18,11,22,8.80
2011,04,18,11,23,8.90
2011,04,18,11,24,8.90
2011,04,18,11,25,8.80
2011,04,18,11,26,8.80
2011,04,18,11,27,8.80
2011,04,18,11,29,8.90
2011,04,18,11,30,8.90
2011,04,18,11,31,9.00
2011,04,18,11,32,9.00
2011,04,18,11,33,9.00
2011,04,18,11,34,9.10
2011,04,18,11,35,9.10
2011,04,18,11,36,9.10
2011,04,18,11,37,9.20
2011,04,18,11,39,9.10
2011,04,18,11,40,9.10
2011,04,18,11,41,9.10
2011,04,18,11,42,9.20
2011,04,18,11,43,9.20
2011,04,18,11,45,9.20
2011,04,18,11,46,9.20
2011,04,18,11,47,9.20
2011,04,18,11,48,9.20
2011,04,18,11,49,9.10
2011,04,18,11,50,9.10
2011,04,18,11,51,9.00
2011,04,18,11,52,9.00
2011,04,18,11,53,9.10
2011,04,18,11,54,9.20
2011,04,18,11,55,9.30
2011,04,18,11,56,9.40
2011,04,18,11,57,9.60
2011,04,18,11,58,9.70
2011,04,18,12,00,9.80
2011,04,18,12,01,9.90
2011,04,18,12,02,9.80
2011,04,18,12,03,9.80
2011,04,18,12,05,9.80
2011,04,18,12,06,9.90
2011,04,18,12,07,9.90
2011,04,18,12,08,9.90
2011,04,18,12,09,10.00
2011,04,18,12,10,10.10
2011,04,18,12,11,10.20
2011,04,18,12,13,10.30
2011,04,18,12,14,10.30
2011,04,18,12,15,10.40
2011,04,18,12,16,10.40
2011,04,18,12,18,10.50
2011,04,18,12,19,10.50
2011,04,18,12,20,10.50
2011,04,18,12,21,10.60
2011,04,18,12,22,10.60
2011,04,18,12,23,10.70
2011,04,18,12,24,10.70
2011,04,18,12,25,10.60
2011,04,18,12,26,10.50
2011,04,18,12,27,10.40
2011,04,18,12,29,10.30
2011,04,18,12,30,10.40
2011,04,18,12,31,10.40
2011,04,18,12,32,10.30
2011,04,18,12,33,10.20
2011,04,18,12,34,10.10
2011,04,18,12,35,10.10
2011,04,18,12,36,10.10
2011,04,18,12,37,10.20
2011,04,18,12,38,10.30
2011,04,18,12,39,10.30
2011,04,18,12,40,10.40
2011,04,18,12,41,10.60
2011,04,18,12,42,10.60
2011,04,18,12,44,10.70
2011,04,18,12,45,10.80
2011,04,18,12,46,10.80
2011,04,18,12,48,10.80
2011,04,18,12,49,10.60
2011,04,18,12,50,10.40
2011,04,18,12,51,10.30
2011,04,18,12,53,10.40
2011,04,18,12,54,10.60
2011,04,18,12,55,10.80
2011,04,18,12,56,10.80
2011,04,18,12,58,10.90
2011,04,18,12,59,10.90
2011,04,18,13,00,10.80
2011,04,18,13,02,10.70
2011,04,18,13,03,10.70
2011,04,18,13,04,10.70
2011,04,18,13,05,10.70
2011,04,18,13,07,10.70
2011,04,18,13,08,10.70
2011,04,18,13,09,10.70
2011,04,18,13,10,10.70
2011,04,18,13,12,10.80
2011,04,18,13,13,10.90
2011,04,18,13,14,10.90
2011,04,18,13,15,10.80
2011,04,18,13,17,10.70
2011,04,18,13,18,10.70
2011,04,18,13,19,10.70
2011,04,18,13,20,10.80
2011,04,18,13,21,10.80
2011,04,18,13,22,10.90
2011,04,18,13,23,11.00
2011,04,18,13,24,11.00
2011,04,18,13,25,10.90
2011,04,18,13,27,10.80
2011,04,18,13,28,10.70
2011,04,18,13,29,10.70
2011,04,18,13,30,10.80
2011,04,18,13,31,10.90
2011,04,18,13,32,11.20
2011,04,18,13,33,11.30
2011,04,18,13,34,11.30
2011,04,18,13,35,11.20
2011,04,18,13,36,11.20
2011,04,18,13,37,11.20
2011,04,18,13,38,11.30
2011,04,18,13,39,11.30
2011,04,18,13,40,11.40
2011,04,18,13,42,11.60
2011,04,18,13,43,11.60
2011,04,18,13,44,11.40
2011,04,18,13,46,11.30
2011,04,18,13,47,11.20
2011,04,18,13,48,11.00
2011,04,18,13,49,10.80
2011,04,18,13,50,10.70
2011,04,18,13,51,10.70
2011,04,18,13,52,10.60
2011,04,18,13,53,10.60
2011,04,18,13,54,10.50
2011,04,18,13,55,10.50
2011,04,18,13,57,10.50
2011,04,18,13,58,10.50
2011,04,18,13,59,10.40
2011,04,18,14,00,10.40
2011,04,18,14,01,10.40
2011,04,18,14,03,10.40
2011,04,18,14,04,10.40
2011,04,18,14,05,10.50
2011,04,18,14,07,10.50
2011,04,18,14,08,10.50
2011,04,18,14,09,10.50
2011,04,18,14,10,10.50
2011,04,18,14,11,10.40
2011,04,18,14,12,10.40
2011,04,18,14,13,10.40
2011,04,18,14,14,10.30
2011,04,18,14,15,10.30
2011,04,18,14,17,10.30
2011,04,18,14,18,10.40
2011,04,18,14,19,10.40
2011,04,18,14,20,10.40
2011,04,18,14,21,10.40
2011,04,18,14,23,10.30
2011,04,18,14,24,10.30
2011,04,18,14,25,10.20
2011,04,18,14,27,10.10
2011,04,18,14,28,9.90
2011,04,18,14,29,9.90
2011,04,18,14,31,9.90
2011,04,18,14,32,10.00
2011,04,18,14,33,10.10
2011,04,18,14,34,10.20
2011,04,18,14,35,10.20
2011,04,18,14,36,10.30
2011,04,18,14,37,10.40
2011,04,18,14,38,10.50
2011,04,18,14,39,10.60
2011,04,18,14,40,10.60
2011,04,18,14,41,10.60
2011,04,18,14,42,10.60
2011,04,18,14,43,10.50
2011,04,18,14,45,10.40
2011,04,18,14,46,10.40
2011,04,18,14,47,10.40
2011,04,18,14,48,10.30
2011,04,18,14,49,10.20
2011,04,18,14,51,10.10
2011,04,18,14,52,10.00
2011,04,18,14,53,10.00
2011,04,18,14,54,10.00
2011,04,18,14,56,9.90
2011,04,18,14,57,9.90
2011,04,18,14,58,10.00
2011,04,18,14,59,10.00
2011,04,18,15,00,10.00
2011,04,18,15,01,9.90
2011,04,18,15,02,9.90
2011,04,18,15,03,9.80
2011,04,18,15,04,9.80
2011,04,18,15,05,9.70
2011,04,18,15,06,9.60
2011,04,18,15,07,9.60
2011,04,18,15,08,9.40
2011,04,18,15,09,9.40
2011,04,18,15,10,9.40
2011,04,18,15,11,9.30
2011,04,18,15,12,9.30
2011,04,18,15,13,9.30
2011,04,18,15,14,9.30
2011,04,18,15,15,9.30
2011,04,18,15,16,9.30
2011,04,18,15,17,9.30
2011,04,18,15,18,9.30
2011,04,18,15,20,9.30
2011,04,18,15,21,9.30
2011,04,18,15,22,9.40
2011,04,18,15,23,9.40
2011,04,18,15,25,9.40
2011,04,18,15,26,9.40
2011,04,18,15,27,9.40
2011,04,18,15,28,9.40
2011,04,18,15,29,9.40
2011,04,18,15,31,9.40
2011,04,18,15,32,9.40
2011,04,18,15,33,9.40
2011,04,18,15,34,9.40
2011,04,18,15,35,9.40
2011,04,18,15,37,9.40
2011,04,18,15,38,9.30
2011,04,18,15,39,9.30
2011,04,18,15,40,9.20
2011,04,18,15,41,9.20
2011,04,18,15,42,9.10
2011,04,18,15,43,9.00
2011,04,18,15,44,8.90
2011,04,18,15,46,8.90
2011,04,18,15,47,8.90
2011,04,18,15,48,9.00
2011,04,18,15,49,9.00
2011,04,18,15,51,9.10
2011,04,18,15,52,9.20
2011,04,18,15,53,9.20
2011,04,18,15,54,9.30
2011,04,18,15,55,9.30
2011,04,18,15,56,9.30
2011,04,18,15,57,9.40
2011,04,18,15,58,9.40
2011,04,18,15,59,9.40
2011,04,18,16,00,9.50
2011,04,18,16,01,9.50
2011,04,18,16,02,9.60
2011,04,18,16,03,9.60
2011,04,18,16,04,9.70
2011,04,18,16,06,9.70
2011,04,18,16,07,9.70
2011,04,18,16,08,9.80
2011,04,18,16,09,9.80
2011,04,18,16,10,9.90
2011,04,18,16,11,10.10
2011,04,18,16,12,10.20
2011,04,18,16,13,10.30
2011,04,18,16,15,10.60
2011,04,18,16,16,10.80
2011,04,18,16,17,10.80
2011,04,18,16,18,10.80
2011,04,18,16,20,10.90
2011,04,18,16,21,10.90
2011,04,18,16,22,10.80
2011,04,18,16,23,10.70
2011,04,18,16,24,10.60
2011,04,18,16,26,10.50
2011,04,18,16,27,10.40
2011,04,18,16,28,10.30
2011,04,18,16,29,10.30
2011,04,18,16,31,10.30
2011,04,18,16,32,10.30
2011,04,18,16,33,10.30
2011,04,18,16,34,10.40
2011,04,18,16,35,10.40
2011,04,18,16,36,10.50
2011,04,18,16,37,10.60
2011,04,18,16,38,10.60
2011,04,18,16,39,10.70
2011,04,18,16,40,10.70
2011,04,18,16,41,10.70
2011,04,18,16,42,10.70
2011,04,18,16,43,10.80
2011,04,18,16,45,10.80
2011,04,18,16,46,10.80
2011,04,18,16,47,10.80
2011,04,18,16,48,10.80
2011,04,18,16,50,10.80
2011,04,18,16,51,10.90
2011,04,18,16,52,11.00
2011,04,18,16,53,11.10
2011,04,18,16,54,11.00
2011,04,18,16,55,11.00
2011,04,18,16,56,10.90
2011,04,18,16,57,10.80
2011,04,18,16,58,10.80
2011,04,18,16,59,10.80
2011,04,18,17,00,10.70
2011,04,18,17,01,10.60
2011,04,18,17,03,10.40
2011,04,18,17,04,10.30
2011,04,18,17,05,10.30
2011,04,18,17,06,10.30
2011,04,18,17,07,10.30
2011,04,18,17,08,10.30
2011,04,18,17,09,10.20
2011,04,18,17,10,10.30
2011,04,18,17,12,10.30
2011,04,18,17,13,10.30
2011,04,18,17,14,10.30
2011,04,18,17,15,10.30
2011,04,18,17,17,10.30
2011,04,18,17,18,10.30
2011,04,18,17,19,10.40
2011,04,18,17,20,10.40
2011,04,18,17,22,10.30
2011,04,18,17,23,10.30
2011,04,18,17,24,10.30
2011,04,18,17,26,10.30
2011,04,18,17,27,10.30
2011,04,18,17,28,10.30
2011,04,18,17,29,10.30
2011,04,18,17,30,10.30
2011,04,18,17,32,10.30
2011,04,18,17,33,10.40
2011,04,18,17,34,10.50
2011,04,18,17,35,10.60
2011,04,18,17,37,10.70
2011,04,18,17,38,10.80
2011,04,18,17,39,10.80
2011,04,18,17,40,10.90
2011,04,18,17,41,11.10
2011,04,18,17,42,11.10
2011,04,18,17,43,11.20
2011,04,18,17,44,11.20
2011,04,18,17,45,11.20
2011,04,18,17,46,11.30
2011,04,18,17,48,11.30
2011,04,18,17,49,11.30
2011,04,18,17,50,11.30
2011,04,18,17,51,11.40
2011,04,18,17,53,11.40
2011,04,18,17,54,11.50
2011,04,18,17,55,11.60
2011,04,18,17,56,11.60
2011,04,18,17,57,11.60
2011,04,18,17,58,11.60
2011,04,18,17,59,11.70
2011,04,18,18,00,11.70
2011,04,18,18,01,11.70
2011,04,18,18,02,11.70
2011,04,18,18,04,11.80
2011,04,18,18,05,11.80
2011,04,18,18,06,11.80
2011,04,18,18,07,11.80
2011,04,18,18,08,11.80
2011,04,18,18,09,11.90
2011,04,18,18,10,11.90
2011,04,18,18,11,11.90
2011,04,18,18,12,12.10
2011,04,18,18,13,12.10
2011,04,18,18,14,11.90
2011,04,18,18,15,11.80
2011,04,18,18,16,11.60
2011,04,18,18,17,11.40
2011,04,18,18,19,11.30
2011,04,18,18,20,11.10
2011,04,18,18,21,11.10
2011,04,18,18,22,11.10
2011,04,18,18,23,11.10
2011,04,18,18,24,11.00
2011,04,18,18,25,10.90
2011,04,18,18,26,10.80
2011,04,18,18,27,10.70
2011,04,18,18,28,10.50
2011,04,18,18,29,10.40
2011,04,18,18,30,10.40
2011,04,18,18,31,10.30
2011,04,18,18,32,10.30
2011,04,18,18,33,10.20
2011,04,18,18,34,10.20
2011,04,18,18,36,10.20
2011,04,18,18,37,10.20
2011,04,18,18,38,10.10
2011,04,18,18,39,10.10
2011,04,18,18,40,10.20
2011,04,18,18,41,10.20
2011,04,18,18,42,10.30
2011,04,18,18,43,10.30
2011,04,18,18,44,10.30
2011,04,18,18,45,10.30
2011,04,18,18,46,10.40
2011,04,18,18,47,10.40
2011,04,18,18,48,10.40
2011,04,18,18,50,10.40
2011,04,18,18,51,10.40
2011,04,18,18,52,10.30
2011,04,18,18,53,10.30
2011,04,18,18,54,10.30
2011,04,18,18,55,10.40
2011,04,18,18,56,10.40
2011,04,18,18,57,10.50
2011,04,18,18,58,10.50
2011,04,18,18,59,10.50
2011,04,18,19,00,10.60
2011,04,18,19,01,10.60
2011,04,18,19,02,10.70
2011,04,18,19,03,10.70
2011,04,18,19,04,10.70
2011,04,18,19,05,10.70
2011,04,18,19,06,10.70
2011,04,18,19,08,10.70
2011,04,18,19,09,10.70
2011,04,18,19,10,10.70
2011,04,18,19,11,10.70
2011,04,18,19,12,10.70
2011,04,18,19,13,10.70
2011,04,18,19,14,10.70
2011,04,18,19,15,10.60
2011,04,18,19,16,10.60
2011,04,18,19,17,10.40
2011,04,18,19,18,10.40
2011,04,18,19,20,10.30
2011,04,18,19,21,10.20
2011,04,18,19,22,10.10
2011,04,18,19,24,10.00
2011,04,18,19,25,9.90
2011,04,18,19,26,9.80
2011,04,18,19,27,9.70
2011,04,18,19,28,9.70
2011,04,18,19,29,9.70
2011,04,18,19,30,9.60
2011,04,18,19,31,9.60
2011,04,18,19,32,9.60
2011,04,18,19,33,9.50
2011,04,18,19,34,9.40
2011,04,18,19,35,9.40
2011,04,18,19,36,9.30
2011,04,18,19,38,9.30
2011,04,18,19,39,9.20
2011,04,18,19,40,9.10
2011,04,18,19,41,9.10
2011,04,18,19,42,8.90
2011,04,18,19,43,8.90
2011,04,18,19,44,8.80
2011,04,18,19,45,8.80
2011,04,18,19,46,8.80
2011,04,18,19,47,8.80
2011,04,18,19,48,8.70
2011,04,18,19,49,8.70
2011,04,18,19,50,8.60
2011,04,18,19,51,8.60
2011,04,18,19,53,8.60
2011,04,18,19,54,8.50
2011,04,18,19,55,8.50
2011,04,18,19,56,8.40
2011,04,18,19,58,8.40
2011,04,18,19,59,8.30
2011,04,18,20,00,8.30
2011,04,18,20,01,8.30
2011,04,18,20,03,8.30
2011,04,18,20,04,8.20
2011,04,18,20,05,8.20
2011,04,18,20,06,8.20
2011,04,18,20,08,8.10
2011,04,18,20,09,8.10
2011,04,18,20,10,8.10
2011,04,18,20,11,8.10
2011,04,18,20,13,8.00
2011,04,18,20,14,7.90
2011,04,18,20,15,7.90
2011,04,18,20,16,7.90
2011,04,18,20,17,7.90
2011,04,18,20,18,7.90
2011,04,18,20,19,7.90
2011,04,18,20,20,7.80
2011,04,18,20,21,7.80
2011,04,18,20,22,7.80